[[{"header":{"parameterUnit":"m.s-1","parameterCategory":1,"la1":30.2991,"la2":30.254,"lo1":-89.0895,"lo2":-89.0444,"dy":0.0017,"dx":0.0017,"nx":28,"ny":28,"refTime":"2024-04-26T21:00:00:Z","depth":0,"parameterNumber":2,"parameterNumberName":"U-component_of_WINDS"},"data":[0,0,0,0,0,0,0,0,0,0,0,0,0,0,0,0,0,0,0,0,0,0,0,0,0,0,0,0,0,0,0,0,0,0,0,0,0,0,0,0,0,0,0,0,0,0,0,0,0,0,0,0,0,0,0,0,0,0,-8.3345,-8.3347,0,-8.3504,-8.3506,-8.3508,-8.347,-8.3467,-8.3464,-8.3461,-8.3619,-8.3626,-8.3633,0,0,0,0,0,0,0,0,0,0,0,0,0,-8.3005,-8.3012,-8.3345,-8.3347,-8.3349,-8.3504,-8.3506,-8.3508,-8.3471,-8.3467,-8.3464,-8.346,-8.3617,-8.3625,-8.3634,0,0,0,0,0,0,0,0,0,0,0,0,0,-8.3157,-8.3014,-8.3345,-8.3349,-8.3351,-8.3503,-8.3506,-8.3509,-8.3472,-8.3467,-8.3463,-8.3458,-8.3614,-8.3625,-8.3635,-8.3791,0,0,-8.3667,-8.3672,0,0,0,0,0,0,0,0,-8.3149,-8.317,-8.3347,-8.3349,-8.3352,-8.3463,-8.3444,-8.3603,-8.3473,-8.3426,-8.3461,-8.3456,-8.3571,-8.3584,-8.3624,-8.3798,-8.3805,-8.3668,-8.3674,-8.3679,-8.3682,0,0,0,0,0,0,0,-8.3138,-8.3163,-8.3408,-8.3349,-8.3352,-8.3342,-8.3359,-8.3474,-8.3522,-8.343,-8.3427,-8.3447,-8.3571,-8.3614,-8.3628,-8.3807,-8.3668,-8.3677,-8.3684,-8.3688,-8.4116,-8.4121,0,0,0,0,0,0,-8.3126,-8.3154,-8.3403,-8.3412,-8.3237,-8.3352,-8.337,-8.3432,-8.352,-8.3529,-8.3451,-8.3445,-8.3598,-8.3615,-8.3633,-8.3819,-8.3679,-8.3689,-8.3695,-8.4111,-8.4117,-8.4122,0,0,0,0,0,0,-8.3119,-8.3149,-8.3396,-8.3283,-8.3314,-8.3363,-8.3432,-8.3437,-8.348,-8.3536,-8.3544,-8.3486,-8.3595,-8.3618,-8.3752,-8.3824,-8.3694,-8.3703,-8.4105,-8.4113,-8.412,-8.4194,0,0,0,0,0,0,-8.311,-8.3146,-8.3207,-8.3285,-8.332,-8.3514,-8.3436,-8.3444,-8.3499,-8.3492,-8.3571,-8.358,-8.3594,-8.3736,-8.3762,-8.3836,-8.3711,-8.4098,-8.4108,-8.4117,-8.4185,-8.4203,-8.4219,0,0,0,0,0,-8.3098,-8.3221,-8.321,-8.324,-8.3397,-8.3518,-8.3538,-8.3552,-8.3505,-8.3565,-8.3601,-8.3577,-8.3813,-8.375,-8.3779,-8.3857,-8.4094,-8.4106,-8.4117,-8.4178,-8.42,-8.4218,0,0,0,0,0,0,-8.3148,-8.3231,-8.322,-8.3372,-8.3439,-8.3511,-8.3588,-8.3575,-8.3655,-8.3645,-8.3659,-8.3677,-8.3813,-8.3849,-8.3778,-8.4012,-8.3946,-8.3964,-8.3983,-8.4004,-8.4021,-8.4007,-8.372,0,0,0,0,0,-8.3177,-8.327,-8.3337,-8.3465,-8.3499,-8.3538,-8.3592,-8.3598,-8.3666,-8.3693,-8.3739,-8.3805,-8.3894,-8.3952,-8.4037,-8.4192,-8.4207,-8.426,-8.4277,-8.429,-8.4304,-8.4387,-8.441,-8.416,-8.416,-8.4159,0,0,-8.3238,-8.3295,-8.3352,-8.3477,-8.3529,-8.3623,-8.3562,-8.3664,-8.3734,-8.3708,-8.3836,-8.3873,-8.3948,-8.4093,-8.4159,-8.4127,-8.4377,-8.4305,-8.4315,-8.4321,-8.4401,-8.4424,-8.4445,-8.4167,-8.4166,-8.4165,0,0,-8.3395,-8.3449,-8.356,-8.3615,-8.3695,-8.372,-8.3747,-8.3823,-8.3847,-8.3977,-8.3959,-8.4042,-8.4195,-8.4249,-8.4296,-8.4477,-8.4456,-8.4504,-8.4589,-8.467,-8.4689,-8.4707,-8.4768,-8.479,-8.4519,-8.4519,-8.4519,0,-8.3459,-8.3602,-8.3619,-8.3723,-8.3778,-8.3762,-8.3874,-8.3925,-8.4029,-8.4066,-8.403,-8.4222,-8.4271,-8.4427,-8.4471,-8.4512,-8.4541,-8.4493,-8.4686,-8.4703,-8.472,-8.4778,-8.4802,-8.4524,-8.4523,-8.4523,-8.4522,0,-8.3675,-8.3775,-8.3855,-8.3957,-8.4021,-8.4129,-8.4161,-8.4224,-8.4225,-8.4254,-8.4386,-8.4445,-8.4541,-8.458,-8.4582,-8.4736,-8.4714,-8.4682,-8.4615,-8.4748,-8.4803,-8.4826,-8.4531,-8.4529,-8.4528,-8.4526,0,0,-8.3865,-8.3977,-8.4005,-8.4051,-8.414,-8.4216,-8.4323,-8.4419,-8.4471,-8.4544,-8.4632,-8.4764,-8.4735,-8.4789,-8.4797,-8.4868,-8.5004,-8.4827,-8.4829,-8.4855,-8.5175,-8.5195,-8.5221,-8.4994,-8.4998,-8.5002,-8.5167,0,-8.4027,-8.4216,-8.4236,-8.4404,-8.4495,-8.4483,-8.4576,-8.4639,-8.467,-8.4751,-8.4784,-8.4876,-8.4833,-8.4865,-8.4936,-8.4972,-8.5068,-8.4961,-8.5072,-8.5076,-8.5049,-8.525,-8.5272,-8.5425,-8.5189,-8.5193,-8.5196,0,-8.4241,-8.4321,-8.4499,-8.4575,-8.4614,-8.4697,-8.4786,-8.4865,-8.4936,-8.4954,-8.5015,-8.5014,-8.5123,-8.5056,-8.5205,-8.5132,-8.5179,-8.5205,-8.5211,-8.5218,-8.5141,-8.5259,-8.5475,-8.5497,-8.5231,-8.5228,-8.5225,0,-8.4357,-8.451,-8.4636,-8.4676,-8.4768,-8.4827,-8.4868,-8.4936,-8.4992,-8.507,-8.5106,-8.5196,-8.5244,-8.5313,-8.5336,-8.5285,-8.5483,-8.5418,-8.5497,-8.5497,-8.5535,-8.5532,-8.5758,-8.5574,-8.5573,-8.5573,-8.5572,0,-8.4534,-8.4642,-8.4689,-8.4766,-8.4886,-8.4908,-8.5027,-8.5065,-8.5126,-8.5209,-8.5205,-8.5283,-8.531,-8.5392,-8.5411,-8.553,-8.5553,-8.5568,-8.5571,-8.5566,-8.5563,-8.5593,-8.5582,-8.5579,-8.5578,-8.5576,-8.5575,0,-8.4681,-8.4718,-8.4853,-8.4931,-8.4953,-8.5038,-8.5104,-8.5177,-8.5209,-8.5313,-8.5339,-8.5387,-8.5484,-8.5515,-8.5631,-8.5644,-8.5782,-8.5777,-8.5757,-8.5756,-8.5833,-8.5823,-8.6083,-8.6116,-8.5913,-8.5915,-8.5917,0,-8.4789,-8.4873,-8.496,-8.5016,-8.5059,-8.515,-8.5208,-8.5233,-8.5293,-8.5383,-8.5445,-8.5541,-8.5619,-8.5774,-8.5818,-8.5907,-8.5902,-8.5987,-8.5914,-8.5907,-8.5898,-8.5891,-8.5898,-8.5998,-8.6,-8.6002,-8.6003,0,-8.4976,-8.4991,-8.5075,-8.5166,-8.5236,-8.5308,-8.5378,-8.5424,-8.546,-8.5527,-8.5627,-8.5687,-8.5807,-8.5902,-8.5993,-8.6033,-8.6024,-8.6027,-8.6049,-8.6042,-8.6026,-8.6032,-8.5789,-8.6019,-8.6018,-8.6017,-8.6016,-8.6015,-8.5105,-8.5178,-8.5251,-8.5344,-8.54,-8.5466,-8.5539,-8.558,-8.5664,-8.5763,-8.5774,-8.588,-8.5951,-8.6072,-8.6118,-8.6201,-8.6176,-8.6209,-8.6217,-8.6224,-8.6228,-8.6017,-8.6218,-8.6217,-8.6217,-8.6217,-8.6216,0,-8.5288,-8.5335,-8.5422,-8.552,-8.5594,-8.5583,-8.566,-8.5721,-8.5815,-8.5883,-8.596,-8.6074,-8.6166,-8.6219,-8.6311,-8.6367,-8.6364,-8.6389,-8.6383,-8.6392,-8.6246,-8.6216,-8.639,-8.639,-8.639,-8.639,-8.6389,-8.6389,-8.5392,-8.5514,-8.5537,-8.5687,-8.5733,-8.5838,-8.5883,-8.5943,-8.5996,-8.6124,-8.6201,-8.6236,-8.6297,-8.6393,-8.6477,-8.649,-8.6522,-8.6549,-8.6559,-8.6421,-8.6403,-8.6386,-8.6357,-8.6557,-8.6558,-8.6698,-8.6699,-8.67]},{"header":{"parameterUnit":"m.s-1","parameterCategory":1,"la1":30.2991,"la2":30.254,"lo1":-89.0895,"lo2":-89.0444,"dy":0.0017,"dx":0.0017,"nx":28,"ny":28,"refTime":"2024-04-26T21:00:00:Z","depth":0,"parameterNumber":3,"parameterNumberName":"V-component_of_WINDS"},"data":[0,0,0,0,0,0,0,0,0,0,0,0,0,0,0,0,0,0,0,0,0,0,0,0,0,0,0,0,0,0,0,0,0,0,0,0,0,0,0,0,0,0,0,0,0,0,0,0,0,0,0,0,0,0,0,0,0,0,4.7214,4.7215,0,4.7254,4.7254,4.7255,4.7229,4.7227,4.7226,4.7225,4.7262,4.7264,4.7266,0,0,0,0,0,0,0,0,0,0,0,0,0,4.7114,4.7116,4.7214,4.7215,4.7215,4.7254,4.7254,4.7255,4.7229,4.7227,4.7226,4.7225,4.7261,4.7264,4.7266,0,0,0,0,0,0,0,0,0,0,0,0,0,4.7156,4.7116,4.7214,4.7207,4.7207,4.7254,4.7254,4.7255,4.7229,4.7227,4.7226,4.7224,4.726,4.7263,4.7266,4.7321,0,0,4.7276,4.7277,0,0,0,0,0,0,0,0,4.7153,4.7159,4.7207,4.7208,4.7207,4.7235,4.7232,4.7277,4.723,4.722,4.7225,4.7223,4.7254,4.7257,4.7269,4.7323,4.7325,4.7276,4.7278,4.7279,4.728,0,0,0,0,0,0,0,4.715,4.7157,4.723,4.7208,4.7208,4.7201,4.7205,4.7241,4.7246,4.7221,4.7219,4.7225,4.7253,4.7266,4.7269,4.7325,4.7276,4.7279,4.7281,4.7282,4.7427,4.7429,0,0,0,0,0,0,4.7148,4.7155,4.7228,4.7231,4.7175,4.7204,4.7209,4.7227,4.7246,4.7247,4.7226,4.7223,4.7261,4.7266,4.727,4.7336,4.7279,4.7282,4.7284,4.7426,4.7428,4.743,0,0,0,0,0,0,4.7146,4.7155,4.7227,4.7193,4.7201,4.7208,4.7229,4.7229,4.7241,4.725,4.7251,4.7238,4.726,4.7266,4.7309,4.7337,4.7284,4.7287,4.7423,4.7426,4.7429,4.7468,0,0,0,0,0,0,4.7144,4.7155,4.7176,4.7193,4.7203,4.7266,4.7231,4.7231,4.7247,4.7244,4.7261,4.7262,4.7259,4.7305,4.7312,4.7341,4.7289,4.7421,4.7425,4.7428,4.7465,4.7472,4.7479,0,0,0,0,0,4.714,4.7184,4.7177,4.7186,4.723,4.7267,4.7273,4.727,4.725,4.7271,4.7277,4.7261,4.7333,4.7309,4.7318,4.7347,4.7419,4.7423,4.7428,4.7461,4.7471,4.7479,0,0,0,0,0,0,4.7168,4.7186,4.7179,4.723,4.7248,4.7263,4.7289,4.728,4.7302,4.7298,4.7292,4.7296,4.7342,4.7349,4.7322,4.7402,4.7373,4.7379,4.7395,4.7404,4.7412,4.7408,4.7292,0,0,0,0,0,4.7181,4.7211,4.7224,4.7268,4.7278,4.7283,4.7298,4.7295,4.7312,4.7319,4.7328,4.7345,4.7371,4.7388,4.7413,4.7466,4.7469,4.7491,4.7498,4.7504,4.7509,4.7538,4.7547,4.7445,4.7445,4.7445,0,0,4.7206,4.722,4.7238,4.7274,4.7288,4.7318,4.7289,4.7322,4.7344,4.7324,4.7365,4.7373,4.7391,4.744,4.7461,4.7447,4.7538,4.7509,4.7514,4.7516,4.7543,4.7553,4.7562,4.7448,4.7447,4.7447,0,0,4.7268,4.7281,4.732,4.7334,4.7356,4.7359,4.7368,4.7386,4.739,4.7433,4.7419,4.7445,4.749,4.7504,4.7517,4.7587,4.7573,4.7595,4.7632,4.766,4.7668,4.7675,4.77,4.7709,4.76,4.76,4.76,0,4.7296,4.7342,4.734,4.7375,4.7392,4.7377,4.7416,4.743,4.7457,4.7468,4.7452,4.751,4.7521,4.7573,4.7591,4.7602,4.7612,4.7592,4.7668,4.7675,4.7681,4.7705,4.7714,4.7603,4.7602,4.7602,4.7602,0,4.7376,4.7409,4.7437,4.7466,4.7486,4.7522,4.7526,4.7546,4.7541,4.7546,4.7589,4.7603,4.763,4.7643,4.7637,4.7694,4.7685,4.7668,4.7639,4.7694,4.7715,4.7724,4.7606,4.7605,4.7605,4.7604,0,0,4.7454,4.7484,4.7495,4.7508,4.7532,4.7556,4.7592,4.7621,4.7638,4.7658,4.7688,4.7728,4.7714,4.7729,4.7725,4.775,4.7805,4.7731,4.7731,4.7744,4.7869,4.788,4.7891,4.7797,4.7799,4.78,4.7867,0,4.7517,4.7582,4.7582,4.7641,4.7671,4.7659,4.7691,4.7708,4.7714,4.774,4.7746,4.7774,4.7753,4.7762,4.7787,4.7793,4.783,4.7789,4.7824,4.7825,4.7819,4.7902,4.7914,4.7976,4.7875,4.7877,4.7878,0,4.7599,4.7624,4.7686,4.7707,4.772,4.7748,4.7775,4.78,4.782,4.7822,4.784,4.7834,4.787,4.7841,4.789,4.7862,4.7877,4.7883,4.7885,4.7887,4.7854,4.7906,4.7996,4.8005,4.7891,4.789,4.7889,0,4.765,4.7699,4.7743,4.7755,4.778,4.78,4.7811,4.783,4.7847,4.7871,4.7882,4.7909,4.7924,4.7944,4.7945,4.7923,4.7995,4.7966,4.7998,4.7998,4.8012,4.8011,4.8105,4.8023,4.8023,4.8023,4.8023,0,4.7719,4.7758,4.7766,4.7793,4.7836,4.7837,4.7879,4.7888,4.7905,4.7933,4.7924,4.795,4.795,4.7977,4.7977,4.8019,4.8025,4.8028,4.8027,4.8028,4.8028,4.8037,4.8032,4.8025,4.8025,4.8024,4.8024,0,4.7783,4.779,4.7837,4.7858,4.7864,4.7895,4.7912,4.7938,4.7944,4.798,4.7988,4.7997,4.8028,4.8031,4.8067,4.8067,4.8117,4.8112,4.8111,4.811,4.8142,4.8138,4.8244,4.8258,4.8167,4.8168,4.8169,0,4.7826,4.7856,4.7881,4.79,4.7913,4.7944,4.7962,4.7964,4.7984,4.801,4.8032,4.8063,4.8087,4.8138,4.8146,4.8174,4.8169,4.8205,4.8173,4.8173,4.8169,4.8167,4.817,4.821,4.8211,4.8212,4.8213,0,4.7903,4.7906,4.7934,4.7964,4.7987,4.801,4.8032,4.8048,4.8052,4.8075,4.8108,4.8127,4.8165,4.8195,4.8222,4.8233,4.8223,4.8223,4.8232,4.8232,4.823,4.8232,4.8127,4.822,4.8219,4.8219,4.8218,4.8218,4.7958,4.7984,4.8006,4.8038,4.8055,4.8076,4.8102,4.8112,4.814,4.8172,4.8171,4.8207,4.8227,4.8263,4.8276,4.8303,4.8291,4.8304,4.8307,4.831,4.8313,4.8227,4.8308,4.8308,4.8308,4.8308,4.8308,0,4.8034,4.8048,4.8078,4.811,4.8135,4.8126,4.815,4.8171,4.8204,4.8224,4.8249,4.8287,4.8317,4.8329,4.8358,4.8378,4.8375,4.8386,4.8384,4.8386,4.8322,4.8312,4.8388,4.8388,4.8388,4.8388,4.8388,4.8388,4.8076,4.8121,4.8127,4.8179,4.8193,4.823,4.8244,4.8263,4.828,4.8323,4.8349,4.8357,4.8374,4.8405,4.8432,4.8434,4.8445,4.8458,4.8459,4.8399,4.8391,4.8383,4.8373,4.8461,4.8461,4.8521,4.8521,4.8522]}]]